Vertical_Velocity
-1 -1 -1 -1 -1 -1 -1 -0 -0 -1 -1 -2 -3 -3 -3 -2 -2 -2 -1 -1 -2 -3 -3 -3 -3 -4 -4 -3 -3 -3 -3 -2 -1 -1 -1 -1 -2 -2 -2 -1 -1 -1 -2 -2 -1 -1 -1 -1 -1 -2 -2 -1 -1 -1 -1 -1 -1 -1 -1 0 -1 -1 -1 1 2 4 6 5 4
-1 -0 -0 -0 -0 -0 -0 0 0 0 -0 -1 -2 -2 -3 -3 -2 -2 -1 -0 -1 -2 -3 -3 -3 -3 -3 -3 -2 -2 -3 -3 -3 -2 -1 -1 -1 -1 -1 -1 -1 -1 -1 -2 -2 -2 -1 -1 -2 -2 -2 -0 0 -0 0 1 0 -1 -2 -2 -2 -2 -2 -2 -1 2 4 6 7
-1 -0 -0 0 0 -0 -1 -1 -1 -1 -1 -1 -1 -2 -2 -2 -2 -2 -2 -1 -0 -1 -1 -3 -3 -3 -3 -3 -2 -1 -2 -3 -3 -3 -2 -2 -1 -1 -1 -1 -0 0 -0 -1 -2 -2 -2 -2 -3 -2 -2 -1 0 0 1 2 1 -1 -3 -3 -4 -4 -3 -3 1 3 4 2 4
1 0 0 -0 -0 -0 -1 -2 -2 -1 -1 -1 -1 -1 -1 -1 -1 -1 -1 -0 0 0 -1 -2 -3 -3 -3 -2 -2 -1 -1 -1 -2 -3 -3 -2 -2 -1 -0 -0 -0 -0 0 -0 -1 -2 -2 -3 -4 -3 -2 -1 -0 1 1 2 1 -0 -2 -4 -5 -5 -5 -2 2 3 2 -2 -1
2 2 1 1 0 -0 -0 -1 -1 -2 -2 -2 -2 -2 -2 -1 -1 -1 -1 0 1 0 -0 -1 -2 -3 -2 -2 -1 -1 -0 0 -1 -2 -3 -3 -2 -1 -0 -0 -0 -0 -0 -0 -1 -1 -2 -3 -4 -3 -2 -1 -1 0 1 2 1 -1 -2 -3 -5 -6 -6 -2 1 1 0 -2 -2
-0 0 1 1 1 1 1 1 0 -0 -1 -1 -1 -2 -2 -2 -1 -1 -0 -0 0 0 0 -1 -2 -2 -2 -1 -1 -0 -0 0 -0 -1 -3 -3 -2 -2 -1 -0 -0 -0 -1 -1 -1 -2 -2 -3 -4 -3 -2 -1 -1 0 1 2 0 -1 -2 -2 -4 -5 -6 -5 -2 0 2 1 0
-1 -1 -1 -0 0 1 1 1 1 1 0 -0 -1 -1 -2 -1 -0 0 1 1 1 0 -0 -1 -2 -2 -3 -2 -2 -1 -1 -0 -0 -1 -2 -3 -2 -2 -1 -1 -1 -0 -1 -1 -1 -2 -2 -3 -3 -2 -2 -0 -0 0 1 1 -0 -1 -2 -3 -3 -4 -5 -7 -4 0 3 3 2
0 0 -0 -0 0 0 1 1 1 1 0 0 -1 -1 -1 -1 -0 1 2 2 2 1 -0 -1 -2 -2 -3 -3 -2 -2 -2 -1 -1 -1 -1 -2 -2 -2 -1 -1 -1 -0 -0 -1 -1 -1 -2 -2 -2 -2 -2 -1 -1 -0 0 1 -0 -2 -2 -2 -3 -4 -5 -6 -4 -1 2 3 1
0 0 0 0 1 1 1 1 1 1 0 0 -0 -1 -1 -1 -0 0 1 2 2 1 0 -1 -2 -2 -2 -2 -2 -2 -2 -1 -1 -2 -2 -1 -2 -2 -2 -1 -1 -0 0 0 -0 -0 -1 -1 -1 -1 -1 -1 -1 -1 -0 0 -0 -1 -2 -2 -2 -3 -4 -5 -4 -2 -1 1 -1
-1 -1 -1 -1 -0 0 1 1 1 1 1 0 0 0 -0 -0 0 1 1 1 2 1 0 -1 -2 -2 -2 -2 -2 -2 -2 -2 -2 -2 -2 -1 -2 -2 -2 -2 -1 -1 -1 -0 -0 -0 -1 -1 -1 -1 -0 -1 -1 -1 -1 -0 -0 -1 -2 -2 -1 -2 -4 -5 -4 -2 -1 1 -1
-1 -1 -1 -1 -1 -1 -0 0 1 1 1 0 0 0 0 -0 0 1 2 2 2 2 1 -0 -1 -2 -2 -2 -2 -2 -2 -2 -2 -2 -1 -1 -1 -1 -2 -2 -2 -1 -1 -1 -1 -1 -2 -2 -2 -1 -0 0 -0 -0 -0 -0 -0 -1 -1 -1 -1 -1 -2 -4 -3 -2 -2 -1 -1
-1 -1 -1 -0 -1 -0 -0 0 0 0 0 -0 -1 -1 -1 -1 -0 1 2 2 2 2 2 1 -1 -1 -2 -2 -1 -2 -2 -2 -2 -1 -1 -1 -1 -1 -1 -1 -1 -1 -1 -1 -1 -2 -2 -3 -3 -2 -1 0 1 1 1 0 0 -0 -1 -1 -1 -0 -1 -2 -2 -3 -3 -4 -3
-1 -1 -1 -1 -1 -1 -0 -0 0 0 0 -0 -1 -1 -1 -1 -1 -0 1 2 2 2 2 2 0 -1 -1 -1 -1 -2 -2 -2 -2 -1 -1 -1 -1 -1 -1 -1 -1 -1 -1 -1 -1 -2 -2 -3 -3 -3 -2 -1 0 1 1 1 1 0 -0 -1 -1 -0 0 0 -1 -1 -2 -4 -4
-1 -1 -1 -1 -1 -1 -1 -1 -1 -0 -0 -0 -1 -2 -2 -2 -2 -1 0 1 1 1 1 1 1 0 -1 -1 -1 -1 -2 -2 -2 -2 -1 -1 -0 -0 -0 -1 -1 -1 -1 -0 -1 -1 -2 -3 -3 -3 -2 -1 -1 0 1 1 1 0 -1 -1 -1 -0 -0 1 1 4 7 8 5
-1 -1 -1 -0 -1 -1 -1 -2 -1 -1 -1 -1 -2 -2 -3 -3 -2 -1 -1 0 1 1 1 1 1 1 0 -0 -1 -1 -1 -2 -2 -1 -1 -0 0 0 -0 -1 -2 -1 -1 -0 -0 -1 -2 -2 -3 -3 -2 -2 -2 -1 -0 1 1 1 -0 -1 -1 -1 -1 0 -1 3 10 21 22
-1 -1 -0 -0 -0 -1 -1 -1 -2 -1 -1 -1 -2 -2 -3 -3 -3 -2 -2 -1 -1 0 1 1 0 0 0 0 -0 -0 -0 -0 -1 -1 -1 -0 0 0 -0 -1 -2 -2 -2 -2 -1 -1 -1 -2 -3 -3 -3 -2 -2 -2 -1 -0 1 1 1 -0 -1 -1 -1 -1 -2 -2 2 14 25
-0 -0 -0 -0 -0 -0 -1 -1 -1 -1 -1 -1 -1 -2 -3 -3 -3 -3 -2 -2 -2 -1 -0 0 0 0 -0 0 0 0 0 0 -0 -1 -1 -1 -0 -0 -1 -2 -2 -3 -3 -3 -3 -2 -2 -2 -3 -3 -3 -2 -2 -1 -1 -0 -0 0 0 -0 -0 -1 -1 -2 -2 -2 -2 1 12
-1 -1 -0 -0 -0 -0 -0 -1 -1 -1 -1 -1 -1 -1 -2 -3 -3 -3 -2 -2 -2 -2 -2 -1 0 0 0 -0 -0 -0 -0 -0 0 0 -0 -0 0 0 -0 -1 -2 -3 -4 -4 -3 -3 -3 -3 -3 -3 -3 -2 -1 0 1 2 1 -0 -1 -1 0 0 -0 -1 -1 -2 -2 -3 2
-2 -1 -1 -1 -1 -1 -1 -1 -1 -1 -1 -1 -1 -1 -1 -2 -2 -2 -2 -2 -2 -2 -2 -2 -1 0 1 1 0 0 -0 -1 -0 0 1 0 1 1 1 -0 -1 -2 -3 -4 -3 -3 -3 -3 -3 -3 -2 -2 -1 0 2 3 3 2 1 0 0 1 1 1 0 -1 -2 -3 -0
-2 -2 -1 -1 -1 -2 -2 -2 -2 -2 -2 -2 -2 -1 -1 -1 -2 -2 -2 -2 -2 -2 -2 -2 -1 -1 1 2 2 1 1 0 -0 0 1 1 1 1 1 1 -0 -2 -3 -3 -3 -3 -3 -3 -3 -2 -2 -2 -2 -1 2 4 4 3 2 1 1 1 0 0 -0 -1 -2 -3 2
-2 -1 -1 -1 -2 -2 -2 -2 -2 -2 -2 -2 -2 -1 -1 -1 -1 -2 -2 -3 -3 -3 -2 -2 -2 -1 -1 1 2 2 2 1 0 0 0 1 1 1 1 1 0 -0 -1 -2 -2 -2 -2 -2 -2 -2 -1 -1 -1 -1 1 3 4 4 3 3 2 0 -1 -3 -3 -4 -3 -2 6
-1 -1 -1 -2 -2 -2 -2 -1 -1 -1 -1 -2 -1 -1 -1 -1 -0 -1 -2 -3 -3 -3 -3 -3 -2 -2 -1 -0 1 2 2 2 2 1 0 0 0 1 1 1 1 1 1 1 -1 -2 -2 -1 -1 -1 -1 -0 0 1 1 2 3 4 4 4 3 1 -1 -4 -4 -3 -0 5 13
-1 -1 -2 -2 -2 -2 -2 -1 -0 -0 -1 -1 -1 -1 -1 -0 -0 -0 -0 -1 -2 -3 -3 -3 -2 -2 -1 -1 -0 0 1 2 2 2 2 1 0 0 0 0 1 2 3 4 2 -3 -5 -2 0 1 1 1 1 1 2 3 4 4 5 5 4 3 0 -1 -1 2 5 11 17
-2 -2 -2 -3 -3 -2 -2 -1 -0 -0 -1 -1 -2 -2 -2 -1 -0 0 0 -0 -1 -2 -2 -3 -2 -2 -2 -1 -1 -1 -0 0 1 2 2 2 1 -0 -1 -0 1 3 5 7 5 -1 -8 -8 -0 3 4 3 2 1 2 2 4 5 6 5 5 4 3 3 4 6 9 12 16
-2 -2 -3 -3 -3 -2 -2 -1 -1 -1 -1 -2 -2 -2 -2 -1 -0 0 0 0 -0 -1 -2 -2 -2 -2 -2 -1 -1 -1 -1 -1 -0 0 1 1 1 0 -0 -1 1 4 7 10 8 1 -6 -12 -3 2 4 4 3 2 2 2 4 6 7 7 6 6 6 7 8 9 11 13 15
-3 -3 -3 -3 -3 -3 -2 -2 -2 -2 -2 -2 -2 -1 -1 -1 -0 0 0 0 -1 -1 -1 -2 -2 -2 -2 -2 -2 -1 -1 -1 -0 0 0 1 1 1 1 1 2 6 9 10 8 2 -5 -9 -4 -2 0 3 3 3 2 2 4 6 8 9 9 8 9 10 11 12 12 12 14
-3 -3 -3 -3 -2 -2 -2 -2 -2 -2 -2 -2 -1 -1 -1 -1 -1 -0 0 0 -1 -1 -1 -1 -1 -2 -2 -2 -2 -2 -1 -1 -0 1 1 1 1 1 2 3 4 8 10 8 9 5 -1 -2 -3 -4 -5 -3 -0 1 2 2 3 4 7 9 9 10 10 10 11 12 13 12 12
-3 -3 -3 -2 -2 -2 -2 -2 -3 -2 -2 -2 -2 -2 -2 -2 -1 -1 -0 0 -0 -1 -0 0 -0 -1 -1 -1 -1 -1 -2 -2 -1 0 1 1 1 2 3 4 6 9 12 11 11 8 4 3 -1 -5 -8 -7 -3 -1 1 2 2 3 4 6 8 9 10 10 10 11 12 13 12
-2 -2 -2 -2 -2 -2 -2 -2 -3 -3 -3 -3 -3 -3 -2 -2 -2 -1 -0 0 -0 -1 -1 -1 -1 -1 -2 -2 -2 -2 -1 -1 -1 0 1 1 1 2 3 5 7 10 13 15 12 8 4 2 -2 -6 -8 -8 -5 -2 -0 1 1 2 2 4 5 7 8 9 9 10 10 12 13
-2 -2 -2 -1 -1 -1 -1 -2 -2 -3 -3 -3 -3 -3 -3 -3 -2 -2 -1 -1 -1 -1 -2 -2 -1 -2 -2 -3 -3 -2 -2 -1 -0 1 2 1 1 2 3 5 10 12 12 10 7 6 4 1 -3 -5 -6 -7 -5 -3 -1 0 0 1 1 1 3 4 6 7 8 9 9 9 11
-1 -1 -1 -0 -0 -0 -1 -1 -1 -2 -2 -3 -3 -3 -3 -3 -3 -3 -3 -2 -2 -2 -1 -1 -0 -0 -1 -1 -2 -2 -1 -1 0 2 2 1 1 2 3 5 11 12 9 5 4 6 7 2 -2 -4 -5 -6 -6 -5 -3 -1 -0 0 0 0 1 2 3 4 4 5 6 7 9
-0 -0 -0 0 0 0 -0 -1 -1 -1 -2 -2 -3 -3 -3 -3 -3 -3 -3 -3 -3 -2 -2 -1 0 1 0 -0 -1 -1 -1 -1 0 2 2 2 1 1 3 5 10 10 9 6 5 9 9 -1 -3 -4 -5 -6 -7 -7 -6 -3 -2 -1 -0 0 0 0 0 0 0 1 2 4 6
1 1 0 0 0 0 -0 -1 -1 -1 -2 -2 -2 -3 -4 -3 -3 -2 -2 -2 -2 -3 -3 -2 -1 -1 -1 -2 -2 -2 -1 -1 -0 2 3 2 1 1 3 5 9 9 8 7 4 7 8 1 -1 -2 -3 -5 -6 -7 -7 -6 -4 -2 -1 -0 -0 -0 -1 -1 -2 -2 -1 0 2
0 0 1 0 0 -0 -1 -1 -1 -2 -2 -2 -2 -2 -3 -3 -4 -3 -3 -2 -2 -2 -3 -2 -2 -1 -1 -2 -3 -3 -2 -2 -1 1 3 3 2 1 2 4 7 8 7 6 2 4 7 5 2 -1 -2 -3 -4 -5 -6 -6 -5 -4 -2 -1 -1 -1 -1 -1 -2 -2 -2 -1 0
-1 -0 -0 -0 -0 -1 -1 -1 -2 -2 -2 -2 -2 -2 -2 -2 -3 -4 -4 -3 -2 -2 -2 -2 -1 -0 0 -0 -1 -2 -2 -2 -1 1 2 3 2 1 1 3 6 8 8 6 3 2 4 9 5 2 -0 -2 -3 -3 -3 -4 -4 -4 -3 -2 -2 -2 -2 -2 -2 -2 -1 -1 -0
-1 -1 -1 -1 -1 -1 -1 -2 -2 -2 -2 -2 -3 -3 -3 -3 -3 -3 -4 -3 -2 -1 -1 -1 -1 0 1 1 1 -0 -1 -1 -1 0 1 2 2 2 1 1 4 7 9 7 4 1 2 10 8 5 2 -1 -2 -2 -2 -1 -2 -2 -2 -2 -2 -2 -2 -2 -2 -1 -1 -0 0
-2 -2 -2 -2 -1 -1 -2 -2 -2 -2 -2 -3 -3 -4 -4 -3 -3 -3 -3 -3 -3 -2 -2 -2 -1 -1 0 1 1 1 0 -1 -1 -1 0 1 2 2 1 0 2 6 9 9 5 3 2 4 10 9 4 1 -1 -2 -1 -1 -1 -1 -1 -1 -0 -1 -1 -1 -1 -0 0 1 2
-2 -2 -2 -2 -2 -2 -2 -2 -2 -3 -3 -3 -3 -3 -3 -3 -3 -3 -4 -5 -4 -4 -3 -3 -3 -2 -2 -0 1 1 1 0 -1 -1 -1 -0 1 2 2 0 0 3 7 10 7 4 2 -0 9 10 6 3 -0 -1 -1 -1 -0 0 0 -0 -0 -0 -0 -1 -0 0 1 2 3
-2 -2 -2 -2 -2 -2 -2 -2 -2 -3 -3 -3 -3 -3 -3 -3 -4 -4 -4 -4 -4 -4 -3 -3 -3 -3 -3 -2 -0 1 1 1 -0 -1 -1 -1 1 2 2 2 1 1 3 8 8 6 4 2 5 9 9 4 -0 -1 -1 -1 0 0 0 0 -0 -0 -0 -0 0 1 1 3 4
-2 -2 -2 -2 -2 -2 -2 -1 -1 -1 -2 -3 -3 -3 -4 -4 -4 -4 -3 -3 -3 -3 -3 -2 -3 -3 -3 -3 -2 -1 0 1 0 -0 -1 -1 0 1 2 3 3 2 3 6 9 9 7 5 4 7 9 2 -0 -0 0 0 0 0 0 -0 -0 -0 -0 -0 0 0 1 2 3
-2 -2 -1 -1 -1 -2 -2 -1 -0 -0 -0 -2 -3 -4 -4 -3 -3 -3 -3 -2 -3 -3 -3 -3 -2 -3 -3 -4 -3 -2 -1 -0 -1 -1 -0 -0 -0 0 1 3 3 3 4 5 8 10 9 7 5 6 6 2 1 2 2 2 1 0 -0 -1 -1 -1 -1 -0 -0 0 1 2 3
Height
3012 3010 3008 3006 3004 3003 3001 3000 2998 2997 2995 2993 2992 2990 2989 2988 2987 2985 2984 2983 2981 2979 2978 2977 2976 2974 2974 2973 2971 2970 2969 2969 2968 2967 2966 2965 2965 2964 2963 2962 2961 2960 2960 2959 2958 2958 2957 2957 2956 2956 2956 2956 2957 2957 2957 2958 2959 2959 2959 2960 2961 2961 2962 2962 2964 2966 2968 2969 2970
3010 3009 3007 3005 3003 3001 3000 2998 2997 2995 2993 2991 2990 2989 2987 2986 2984 2983 2982 2981 2979 2977 2976 2974 2973 2972 2971 2970 2969 2968 2967 2966 2965 2964 2964 2963 2962 2961 2960 2959 2959 2958 2957 2956 2955 2954 2954 2954 2953 2953 2953 2953 2953 2954 2954 2954 2955 2955 2955 2956 2957 2958 2958 2959 2960 2962 2964 2965 2967
3009 3007 3005 3003 3001 2999 2998 2996 2994 2993 2991 2989 2988 2986 2985 2984 2982 2981 2980 2979 2977 2975 2974 2972 2971 2970 2969 2968 2967 2965 2964 2963 2962 2961 2960 2959 2959 2958 2957 2956 2955 2955 2954 2953 2952 2951 2950 2950 2949 2949 2949 2949 2950 2950 2950 2951 2951 2952 2952 2952 2953 2954 2955 2956 2958 2959 2961 2962 2963
3007 3005 3003 3001 2999 2998 2996 2994 2992 2991 2989 2987 2986 2984 2983 2982 2980 2979 2978 2976 2975 2974 2972 2970 2969 2967 2966 2965 2964 2963 2962 2961 2959 2958 2957 2957 2956 2955 2954 2954 2953 2952 2951 2950 2949 2948 2947 2947 2946 2946 2946 2946 2946 2946 2947 2947 2948 2948 2949 2949 2949 2951 2952 2953 2954 2956 2957 2959 2959
3006 3004 3002 3000 2998 2996 2994 2992 2990 2989 2987 2985 2984 2982 2981 2979 2978 2977 2975 2974 2973 2971 2970 2968 2967 2965 2964 2963 2962 2960 2959 2958 2957 2956 2955 2954 2953 2953 2952 2951 2950 2949 2948 2947 2946 2945 2944 2943 2943 2942 2942 2943 2943 2943 2944 2944 2944 2945 2945 2945 2946 2947 2948 2949 2951 2952 2954 2955 2956
3004 3002 3000 2998 2996 2994 2992 2990 2989 2987 2985 2983 2982 2980 2979 2978 2976 2975 2974 2972 2970 2969 2968 2966 2964 2963 2962 2960 2959 2958 2957 2956 2955 2954 2952 2951 2951 2950 2949 2948 2948 2946 2945 2944 2943 2942 2941 2940 2940 2939 2939 2939 2939 2940 2940 2941 2941 2941 2942 2942 2943 2944 2944 2945 2947 2949 2950 2951 2952
3002 3000 2998 2996 2994 2993 2991 2989 2987 2985 2983 2981 2980 2978 2977 2976 2974 2973 2971 2970 2968 2967 2965 2964 2962 2961 2959 2958 2957 2955 2954 2953 2952 2951 2950 2949 2948 2947 2947 2946 2945 2944 2943 2942 2941 2940 2939 2938 2937 2937 2936 2937 2937 2937 2937 2938 2938 2938 2939 2939 2939 2940 2941 2941 2943 2945 2946 2947 2949
3000 2998 2996 2994 2993 2991 2989 2987 2985 2983 2981 2979 2978 2976 2975 2974 2972 2971 2969 2968 2966 2964 2963 2961 2960 2958 2957 2955 2954 2953 2952 2951 2950 2949 2948 2947 2946 2945 2944 2943 2943 2942 2941 2939 2938 2937 2936 2935 2935 2934 2934 2934 2934 2934 2934 2935 2935 2935 2936 2936 2937 2937 2938 2938 2939 2941 2942 2943 2944
2999 2997 2994 2993 2991 2989 2987 2985 2983 2981 2979 2978 2976 2974 2973 2971 2970 2969 2967 2965 2964 2962 2960 2959 2957 2956 2955 2954 2952 2951 2949 2948 2947 2946 2945 2944 2943 2942 2942 2941 2940 2939 2939 2937 2936 2935 2934 2933 2932 2932 2932 2931 2931 2931 2932 2932 2932 2933 2933 2933 2934 2934 2935 2935 2936 2937 2938 2939 2940
2997 2994 2993 2991 2989 2987 2985 2983 2981 2979 2978 2976 2974 2973 2971 2969 2968 2966 2965 2963 2962 2960 2959 2957 2955 2954 2953 2951 2950 2949 2947 2946 2945 2944 2943 2942 2941 2940 2939 2939 2938 2937 2936 2935 2934 2933 2932 2931 2930 2930 2929 2929 2929 2929 2929 2929 2930 2930 2930 2931 2931 2932 2932 2933 2933 2934 2935 2936 2937
2995 2993 2990 2989 2987 2985 2983 2981 2979 2978 2976 2974 2973 2971 2969 2968 2966 2964 2963 2961 2960 2959 2957 2955 2954 2952 2951 2949 2948 2947 2946 2944 2943 2942 2941 2940 2939 2939 2938 2937 2936 2935 2934 2933 2932 2931 2929 2929 2928 2928 2927 2927 2927 2927 2927 2927 2927 2928 2928 2929 2929 2929 2930 2930 2931 2932 2932 2933 2934
2993 2991 2989 2987 2984 2983 2981 2979 2978 2976 2974 2972 2971 2969 2967 2966 2964 2963 2961 2959 2958 2957 2955 2953 2952 2950 2949 2948 2946 2945 2944 2943 2942 2940 2939 2939 2938 2937 2936 2935 2934 2934 2933 2931 2930 2929 2928 2927 2926 2926 2925 2925 2925 2925 2925 2925 2925 2925 2926 2926 2927 2927 2928 2928 2929 2930 2930 2931 2932
2991 2989 2987 2984 2983 2981 2979 2977 2976 2974 2972 2970 2969 2967 2965 2964 2962 2961 2959 2958 2956 2955 2953 2952 2950 2949 2947 2946 2944 2943 2942 2941 2940 2939 2938 2937 2936 2935 2934 2934 2933 2932 2931 2930 2929 2928 2926 2925 2924 2924 2924 2923 2923 2923 2923 2923 2923 2924 2924 2924 2925 2925 2926 2927 2928 2929 2929 2929 2930
2989 2987 2984 2983 2981 2979 2977 2975 2974 2972 2970 2969 2967 2965 2964 2962 2960 2959 2957 2955 2954 2953 2951 2950 2949 2947 2945 2944 2943 2942 2940 2939 2938 2937 2937 2936 2935 2934 2933 2932 2931 2930 2929 2929 2927 2926 2925 2924 2923 2922 2922 2921 2921 2921 2921 2922 2922 2922 2922 2923 2923 2924 2924 2925 2926 2928 2929 2929 2929
2987 2985 2983 2981 2979 2977 2975 2973 2971 2970 2968 2966 2964 2963 2961 2960 2958 2957 2955 2953 2952 2951 2949 2948 2947 2945 2944 2943 2942 2940 2939 2938 2937 2936 2935 2934 2934 2933 2932 2931 2930 2929 2928 2927 2926 2925 2924 2923 2922 2921 2920 2920 2919 2919 2919 2920 2920 2920 2921 2921 2921 2922 2923 2924 2924 2926 2927 2928 2929
2985 2983 2981 2979 2977 2975 2973 2971 2969 2968 2966 2964 2962 2961 2959 2958 2956 2954 2953 2951 2950 2949 2948 2946 2945 2944 2943 2941 2940 2939 2938 2937 2936 2934 2934 2933 2932 2931 2930 2929 2928 2928 2927 2925 2924 2924 2923 2922 2921 2920 2919 2919 2918 2918 2918 2918 2919 2919 2919 2919 2919 2920 2921 2922 2923 2924 2924 2926 2927
2984 2981 2979 2977 2975 2973 2971 2969 2967 2965 2964 2962 2960 2959 2957 2955 2954 2952 2951 2949 2948 2946 2945 2944 2943 2942 2941 2940 2939 2938 2937 2936 2934 2933 2932 2931 2931 2930 2929 2928 2927 2926 2925 2924 2923 2922 2921 2920 2920 2919 2918 2918 2917 2917 2917 2917 2917 2917 2918 2918 2919 2919 2919 2920 2921 2922 2922 2923 2924
2982 2980 2978 2976 2974 2972 2970 2968 2966 2964 2962 2960 2959 2957 2955 2954 2952 2950 2949 2947 2946 2944 2943 2942 2941 2940 2939 2938 2937 2936 2935 2934 2933 2932 2931 2930 2929 2929 2928 2927 2926 2925 2924 2923 2922 2921 2920 2919 2919 2918 2918 2917 2916 2916 2915 2915 2915 2915 2916 2916 2917 2918 2918 2919 2919 2920 2921 2921 2921
2980 2978 2976 2974 2972 2970 2968 2966 2964 2962 2960 2959 2957 2955 2954 2952 2950 2949 2947 2945 2944 2942 2941 2940 2939 2939 2938 2937 2936 2935 2934 2933 2932 2931 2930 2929 2928 2928 2927 2926 2925 2924 2923 2922 2921 2920 2919 2919 2918 2917 2916 2916 2915 2915 2914 2914 2914 2914 2914 2915 2915 2916 2917 2918 2918 2919 2919 2919 2919
2978 2976 2974 2972 2970 2968 2966 2964 2963 2961 2959 2957 2955 2954 2952 2951 2949 2947 2945 2944 2942 2941 2939 2938 2937 2937 2936 2935 2934 2934 2932 2931 2930 2929 2929 2928 2927 2927 2926 2925 2924 2923 2922 2921 2921 2920 2919 2918 2917 2916 2915 2915 2914 2914 2913 2913 2913 2913 2913 2914 2914 2914 2915 2916 2916 2916 2916 2917 2917
2977 2974 2973 2970 2969 2967 2965 2963 2961 2959 2958 2956 2954 2953 2951 2949 2948 2946 2944 2942 2940 2939 2938 2936 2935 2935 2934 2934 2933 2932 2931 2930 2929 2928 2927 2926 2926 2925 2925 2924 2923 2923 2922 2921 2920 2919 2919 2917 2916 2915 2914 2914 2914 2913 2912 2912 2911 2911 2912 2912 2913 2913 2913 2913 2913 2913 2913 2914 2914
2975 2973 2971 2969 2967 2965 2963 2961 2960 2958 2956 2954 2953 2951 2949 2948 2946 2944 2943 2941 2939 2937 2936 2934 2934 2933 2932 2931 2931 2930 2929 2928 2927 2926 2926 2925 2924 2924 2924 2923 2922 2922 2921 2920 2919 2918 2918 2917 2916 2915 2914 2913 2913 2912 2911 2911 2910 2910 2910 2911 2911 2911 2911 2911 2911 2911 2911 2912 2912
2974 2972 2970 2968 2965 2964 2962 2960 2958 2956 2955 2953 2951 2949 2948 2946 2945 2943 2942 2940 2938 2936 2934 2933 2932 2931 2930 2929 2929 2928 2927 2927 2926 2925 2924 2924 2923 2923 2922 2922 2921 2921 2921 2920 2919 2917 2916 2916 2915 2914 2913 2913 2912 2911 2911 2910 2909 2909 2909 2909 2910 2910 2910 2910 2910 2910 2910 2911 2911
2974 2971 2969 2967 2964 2962 2960 2959 2957 2955 2953 2951 2949 2948 2946 2945 2943 2942 2940 2939 2937 2935 2933 2932 2930 2929 2928 2928 2927 2926 2925 2925 2924 2924 2923 2923 2922 2921 2921 2920 2920 2920 2920 2919 2918 2917 2916 2914 2914 2914 2913 2912 2911 2911 2910 2910 2909 2909 2909 2909 2909 2909 2909 2909 2909 2909 2909 2909 2910
2973 2970 2968 2966 2964 2961 2959 2958 2956 2954 2952 2950 2948 2946 2944 2943 2942 2940 2939 2937 2935 2934 2932 2930 2929 2928 2926 2926 2925 2924 2924 2923 2922 2922 2921 2921 2920 2920 2919 2919 2919 2919 2919 2919 2918 2917 2915 2912 2913 2913 2912 2912 2911 2910 2910 2909 2909 2909 2908 2908 2908 2908 2909 2909 2909 2909 2909 2909 2909
2972 2969 2967 2965 2963 2961 2959 2957 2954 2952 2950 2948 2946 2944 2943 2941 2940 2939 2937 2935 2934 2932 2930 2929 2928 2926 2925 2924 2923 2922 2921 2921 2921 2920 2920 2919 2919 2919 2918 2918 2918 2919 2919 2918 2918 2915 2912 2910 2911 2911 2910 2910 2910 2910 2909 2909 2909 2908 2908 2907 2907 2907 2908 2908 2908 2908 2908 2908 2908
2970 2968 2966 2964 2962 2960 2958 2956 2954 2951 2949 2947 2945 2943 2941 2939 2938 2937 2935 2934 2932 2930 2929 2928 2926 2925 2923 2922 2921 2920 2919 2919 2919 2919 2918 2918 2917 2917 2917 2917 2917 2918 2918 2917 2917 2914 2909 2909 2909 2908 2908 2908 2908 2908 2908 2908 2908 2907 2907 2907 2907 2907 2907 2907 2907 2907 2907 2907 2907
2969 2967 2965 2963 2961 2959 2957 2955 2953 2950 2948 2946 2944 2942 2940 2938 2936 2934 2933 2932 2930 2929 2927 2926 2924 2923 2922 2920 2919 2919 2918 2917 2917 2917 2917 2916 2916 2915 2915 2915 2916 2917 2917 2916 2915 2911 2908 2907 2906 2905 2905 2905 2906 2906 2906 2906 2906 2906 2906 2906 2906 2905 2905 2906 2906 2906 2906 2906 2906
2968 2966 2964 2962 2960 2958 2956 2954 2951 2949 2947 2945 2943 2940 2939 2936 2934 2933 2931 2930 2928 2927 2925 2924 2923 2921 2920 2919 2918 2917 2916 2915 2915 2915 2915 2915 2914 2914 2914 2914 2915 2915 2915 2914 2912 2909 2906 2904 2903 2902 2902 2903 2903 2904 2904 2904 2904 2904 2904 2904 2904 2904 2904 2904 2904 2904 2905 2905 2905
2967 2964 2962 2960 2959 2957 2954 2952 2950 2948 2946 2944 2941 2939 2937 2935 2933 2931 2929 2928 2926 2924 2923 2922 2921 2919 2918 2917 2916 2915 2914 2914 2914 2914 2914 2914 2913 2913 2913 2913 2913 2913 2912 2910 2909 2907 2904 2901 2900 2899 2899 2900 2901 2901 2902 2903 2903 2903 2903 2903 2903 2903 2903 2903 2903 2903 2904 2904 2904
2965 2963 2961 2959 2957 2955 2953 2951 2949 2947 2944 2942 2940 2938 2936 2934 2932 2929 2928 2926 2924 2923 2921 2920 2919 2918 2917 2915 2914 2914 2913 2913 2912 2912 2912 2912 2912 2912 2912 2912 2911 2910 2909 2906 2907 2906 2903 2899 2898 2898 2898 2898 2898 2899 2899 2900 2900 2901 2901 2901 2901 2901 2901 2901 2901 2901 2902 2903 2903
2964 2962 2960 2958 2956 2954 2952 2949 2947 2945 2943 2941 2939 2936 2934 2932 2930 2928 2926 2924 2923 2921 2919 2919 2917 2916 2915 2914 2913 2912 2912 2911 2911 2911 2911 2911 2910 2910 2910 2910 2909 2909 2907 2905 2905 2905 2903 2899 2898 2897 2896 2896 2896 2896 2897 2897 2898 2898 2899 2899 2899 2899 2899 2899 2899 2899 2900 2901 2901
2963 2961 2959 2957 2954 2952 2950 2948 2946 2944 2942 2939 2937 2935 2933 2931 2929 2927 2925 2923 2921 2919 2918 2916 2915 2914 2913 2912 2911 2910 2910 2909 2909 2909 2909 2909 2909 2909 2909 2909 2908 2907 2905 2904 2904 2904 2903 2899 2897 2896 2895 2894 2894 2894 2894 2895 2895 2896 2896 2897 2897 2897 2897 2897 2897 2897 2898 2899 2899
2962 2959 2957 2955 2953 2951 2949 2947 2944 2942 2940 2938 2936 2934 2932 2929 2927 2925 2924 2922 2920 2918 2916 2915 2914 2912 2911 2910 2909 2908 2908 2908 2908 2908 2908 2908 2908 2908 2908 2907 2907 2906 2904 2903 2902 2902 2902 2900 2898 2896 2894 2894 2893 2893 2892 2893 2893 2893 2894 2894 2894 2895 2895 2895 2895 2895 2896 2896 2897
2960 2958 2956 2954 2951 2949 2947 2945 2943 2941 2939 2937 2934 2933 2930 2928 2926 2924 2922 2920 2919 2917 2915 2914 2912 2911 2910 2909 2908 2907 2906 2906 2906 2906 2906 2906 2906 2906 2906 2906 2905 2904 2904 2902 2901 2900 2901 2902 2899 2896 2894 2893 2892 2891 2891 2890 2890 2890 2890 2891 2891 2892 2892 2893 2893 2894 2894 2894 2894
2958 2956 2954 2952 2950 2948 2946 2944 2942 2939 2938 2935 2933 2931 2929 2927 2924 2923 2920 2919 2917 2915 2914 2912 2911 2909 2908 2907 2906 2905 2904 2904 2904 2904 2904 2904 2904 2904 2904 2904 2904 2903 2903 2901 2900 2899 2899 2901 2899 2897 2894 2893 2891 2890 2890 2889 2889 2888 2888 2889 2889 2889 2889 2890 2891 2891 2892 2892 2892
2957 2955 2953 2951 2949 2946 2944 2942 2940 2938 2936 2934 2932 2930 2928 2925 2923 2921 2919 2917 2915 2914 2912 2910 2909 2908 2907 2906 2905 2904 2903 2903 2902 2902 2902 2902 2903 2903 2902 2902 2902 2902 2901 2900 2899 2899 2898 2898 2899 2897 2894 2892 2890 2889 2889 2889 2888 2888 2887 2887 2887 2887 2887 2888 2888 2889 2889 2890 2890
2955 2953 2951 2949 2947 2945 2943 2941 2939 2937 2935 2933 2931 2929 2927 2924 2922 2920 2918 2915 2914 2912 2910 2909 2907 2906 2905 2904 2903 2903 2902 2901 2901 2900 2900 2900 2900 2901 2901 2900 2900 2900 2900 2899 2899 2898 2897 2896 2897 2897 2894 2892 2890 2889 2889 2888 2888 2887 2886 2886 2886 2886 2885 2886 2886 2887 2887 2888 2889
2954 2952 2950 2948 2946 2944 2942 2940 2938 2936 2934 2932 2930 2929 2926 2924 2921 2919 2917 2914 2912 2910 2909 2907 2905 2904 2903 2902 2902 2901 2900 2900 2899 2899 2899 2898 2899 2899 2899 2899 2899 2899 2899 2899 2898 2897 2896 2896 2895 2895 2894 2891 2889 2888 2888 2888 2887 2887 2886 2886 2885 2885 2885 2885 2885 2885 2886 2886 2887
2953 2951 2949 2947 2945 2943 2941 2939 2938 2935 2934 2932 2930 2928 2926 2924 2921 2919 2916 2914 2912 2909 2908 2906 2904 2903 2902 2901 2900 2899 2899 2899 2898 2898 2897 2897 2897 2897 2897 2897 2897 2897 2897 2897 2897 2896 2895 2895 2894 2894 2893 2890 2889 2888 2888 2887 2887 2886 2886 2885 2885 2885 2884 2884 2884 2884 2885 2885 2886
2952 2950 2948 2946 2944 2942 2940 2939 2937 2935 2933 2931 2929 2927 2925 2923 2921 2919 2916 2914 2912 2909 2907 2905 2904 2903 2901 2900 2899 2899 2898 2897 2897 2896 2896 2896 2895 2895 2896 2896 2896 2896 2896 2896 2895 2895 2894 2894 2893 2892 2892 2890 2889 2888 2888 2887 2886 2886 2885 2885 2885 2885 2884 2884 2884 2884 2884 2884 2884